TimeEDT,TemperatureF,Dew PointF,Humidity,Sea Level PressureIn,VisibilityMPH,Wind Direction,Wind SpeedMPH,Gust SpeedMPH,PrecipitationIn,Events,Conditions,WindDirDegrees,DateUTC
12:15 AM,-9999,-9999,N/A,30.01,10.0,Calm,Calm,-,N/A,,Overcast,0,2012-10-03 04:15:00
12:35 AM,57.2,55.4,94,30.01,10.0,Calm,Calm,-,N/A,,Overcast,0,2012-10-03 04:35:00
12:55 AM,-9999,-9999,N/A,30.01,10.0,Calm,Calm,-,N/A,,Overcast,0,2012-10-03 04:55:00
1:15 AM,57.2,55.4,94,30.02,10.0,Calm,Calm,-,N/A,,Overcast,0,2012-10-03 05:15:00
1:35 AM,-9999,-9999,N/A,30.01,10.0,Calm,Calm,-,N/A,,Overcast,0,2012-10-03 05:35:00
1:55 AM,-9999,-9999,N/A,30.01,10.0,Calm,Calm,-,N/A,,Overcast,0,2012-10-03 05:55:00
2:15 AM,-9999,-9999,N/A,30.01,10.0,Calm,Calm,-,N/A,,Overcast,0,2012-10-03 06:15:00
2:35 AM,-9999,-9999,N/A,30.01,10.0,Calm,Calm,-,N/A,,Overcast,0,2012-10-03 06:35:00
2:55 AM,-9999,-9999,N/A,30.02,10.0,Calm,Calm,-,N/A,,Overcast,0,2012-10-03 06:55:00
3:15 AM,57.2,55.4,94,30.03,10.0,Calm,Calm,-,N/A,,Overcast,0,2012-10-03 07:15:00
3:35 AM,57.2,55.4,94,30.03,10.0,Calm,Calm,-,N/A,,Overcast,0,2012-10-03 07:35:00
3:55 AM,57.2,55.4,94,30.03,10.0,Calm,Calm,-,N/A,,Overcast,0,2012-10-03 07:55:00
4:15 AM,57.2,55.4,94,30.03,10.0,Calm,Calm,-,N/A,,Overcast,0,2012-10-03 08:15:00
4:35 AM,57.2,55.4,94,30.04,10.0,Calm,Calm,-,N/A,,Overcast,0,2012-10-03 08:35:00
4:55 AM,57.2,55.4,94,30.04,10.0,Calm,Calm,-,N/A,,Overcast,0,2012-10-03 08:55:00
5:15 AM,57.2,55.4,94,30.04,10.0,NNE,3.5,-,N/A,,Overcast,20,2012-10-03 09:15:00
5:35 AM,59.0,55.4,88,30.05,10.0,North,4.6,-,N/A,,Overcast,10,2012-10-03 09:35:00
5:55 AM,59.0,55.4,88,30.05,10.0,NNE,4.6,-,N/A,,Overcast,20,2012-10-03 09:55:00
6:15 AM,59.0,55.4,88,30.06,10.0,NNE,4.6,-,N/A,,Overcast,20,2012-10-03 10:15:00
6:55 AM,59.0,55.4,88,30.08,10.0,NNE,3.5,-,N/A,,Overcast,20,2012-10-03 10:55:00
7:15 AM,59.0,53.6,82,30.08,10.0,North,3.5,-,N/A,,Overcast,10,2012-10-03 11:15:00
7:35 AM,59.0,53.6,82,30.08,10.0,NNE,5.8,-,N/A,,Overcast,20,2012-10-03 11:35:00
7:55 AM,60.8,53.6,77,30.09,10.0,North,3.5,-,N/A,,Overcast,10,2012-10-03 11:55:00
8:15 AM,60.8,53.6,77,30.09,10.0,North,5.8,-,N/A,,Overcast,10,2012-10-03 12:15:00
8:35 AM,60.8,53.6,77,30.10,10.0,NNE,5.8,-,N/A,,Overcast,30,2012-10-03 12:35:00
8:55 AM,60.8,53.6,77,30.10,10.0,NNE,5.8,-,N/A,,Overcast,20,2012-10-03 12:55:00
9:15 AM,60.8,53.6,77,30.11,10.0,NNE,6.9,-,N/A,,Overcast,20,2012-10-03 13:15:00
9:35 AM,60.8,53.6,77,30.10,10.0,NNE,6.9,-,N/A,,Overcast,20,2012-10-03 13:35:00
9:55 AM,62.6,53.6,72,30.10,10.0,North,6.9,-,N/A,,Overcast,10,2012-10-03 13:55:00
10:15 AM,62.6,51.8,68,30.11,10.0,NNE,6.9,-,N/A,,Overcast,30,2012-10-03 14:15:00
10:35 AM,62.6,51.8,68,30.11,10.0,NE,4.6,-,N/A,,Overcast,40,2012-10-03 14:35:00
10:55 AM,62.6,53.6,72,30.11,10.0,NE,4.6,-,N/A,,Overcast,50,2012-10-03 14:55:00
11:15 AM,64.4,53.6,68,30.11,10.0,NNE,4.6,-,N/A,,Overcast,30,2012-10-03 15:15:00
11:35 AM,64.4,53.6,68,30.10,10.0,NE,3.5,-,N/A,,Overcast,40,2012-10-03 15:35:00
11:55 AM,64.4,53.6,68,30.10,10.0,North,3.5,-,N/A,,Overcast,360,2012-10-03 15:55:00
12:15 PM,64.4,53.6,68,30.10,10.0,NNE,5.8,-,N/A,,Overcast,30,2012-10-03 16:15:00
12:35 PM,64.4,53.6,68,30.10,10.0,NNE,3.5,-,N/A,,Overcast,30,2012-10-03 16:35:00
12:55 PM,64.4,53.6,68,30.10,10.0,NNE,3.5,-,N/A,,Overcast,20,2012-10-03 16:55:00
1:15 PM,66.2,53.6,64,30.09,7.0,Calm,Calm,-,N/A,,Overcast,0,2012-10-03 17:15:00
1:35 PM,66.2,53.6,64,30.09,10.0,Calm,Calm,-,N/A,,Overcast,0,2012-10-03 17:35:00
1:55 PM,66.2,55.4,68,30.08,10.0,Calm,Calm,-,N/A,,Overcast,0,2012-10-03 17:55:00
2:15 PM,66.2,55.4,68,30.08,10.0,South,3.5,-,N/A,,Overcast,180,2012-10-03 18:15:00
2:35 PM,66.2,55.4,68,30.08,10.0,Calm,Calm,-,N/A,,Overcast,0,2012-10-03 18:35:00
2:55 PM,66.2,55.4,68,30.08,10.0,Calm,Calm,-,N/A,,Overcast,0,2012-10-03 18:55:00
3:15 PM,66.2,55.4,68,30.09,10.0,Calm,Calm,-,N/A,,Overcast,0,2012-10-03 19:15:00
3:35 PM,66.2,55.4,68,30.09,10.0,WSW,3.5,-,N/A,,Overcast,240,2012-10-03 19:35:00
3:55 PM,66.2,57.2,73,30.09,8.0,South,4.6,-,N/A,,Overcast,190,2012-10-03 19:55:00
4:15 PM,-9999,-9999,N/A,30.09,9.0,SSW,9.2,-,N/A,,Overcast,210,2012-10-03 20:15:00
4:35 PM,-9999,-9999,N/A,30.10,2.5,SSW,5.8,-,N/A,,Overcast,210,2012-10-03 20:35:00
4:55 PM,-9999,-9999,N/A,30.10,7.0,SSW,3.5,-,N/A,,Overcast,200,2012-10-03 20:55:00
5:15 PM,-9999,-9999,N/A,30.10,2.5,SW,4.6,-,N/A,,Overcast,220,2012-10-03 21:15:00
5:35 PM,-9999,-9999,N/A,30.11,6.0,SSW,5.8,-,N/A,,Overcast,210,2012-10-03 21:35:00
5:55 PM,-9999,-9999,N/A,30.11,5.0,SSW,4.6,-,N/A,,Overcast,210,2012-10-03 21:55:00
6:15 PM,59.0,57.2,94,30.11,5.0,Calm,Calm,-,N/A,,Overcast,0,2012-10-03 22:15:00
6:35 PM,59.0,57.2,94,30.12,6.0,South,3.5,-,N/A,,Overcast,190,2012-10-03 22:35:00
6:55 PM,59.0,57.2,94,30.12,3.0,Calm,Calm,-,N/A,,Overcast,0,2012-10-03 22:55:00
7:15 PM,59.0,57.2,94,30.13,3.0,Calm,Calm,-,N/A,,Overcast,0,2012-10-03 23:15:00
7:35 PM,59.0,57.2,94,30.13,5.0,Calm,Calm,-,N/A,,Overcast,0,2012-10-03 23:35:00
7:55 PM,-9999,-9999,N/A,30.13,4.0,Calm,Calm,-,N/A,,Overcast,0,2012-10-03 23:55:00
8:15 PM,59.0,57.2,94,30.13,5.0,Calm,Calm,-,N/A,,Overcast,0,2012-10-04 00:15:00
8:35 PM,-9999,-9999,N/A,30.13,3.0,Calm,Calm,-,N/A,,Overcast,0,2012-10-04 00:35:00
8:55 PM,-9999,-9999,N/A,30.13,4.0,Calm,Calm,-,N/A,,Overcast,0,2012-10-04 00:55:00
9:15 PM,59.0,57.2,94,30.14,5.0,Calm,Calm,-,N/A,,Overcast,0,2012-10-04 01:15:00
9:35 PM,59.0,57.2,94,30.15,5.0,Calm,Calm,-,N/A,,Overcast,0,2012-10-04 01:35:00
9:55 PM,-9999,-9999,N/A,30.14,4.0,Calm,Calm,-,N/A,,Overcast,0,2012-10-04 01:55:00
10:15 PM,59.0,57.2,94,30.15,5.0,Calm,Calm,-,N/A,,Overcast,0,2012-10-04 02:15:00
10:35 PM,59.0,57.2,94,30.15,4.0,Calm,Calm,-,N/A,,Overcast,0,2012-10-04 02:35:00
10:55 PM,59.0,57.2,94,30.15,3.0,Calm,Calm,-,N/A,,Overcast,0,2012-10-04 02:55:00
11:15 PM,-9999,-9999,N/A,30.14,2.5,Calm,Calm,-,N/A,,Overcast,0,2012-10-04 03:15:00
11:35 PM,-9999,-9999,N/A,30.15,5.0,Calm,Calm,-,N/A,,Overcast,0,2012-10-04 03:35:00
11:55 PM,-9999,-9999,N/A,30.15,5.0,Calm,Calm,-,N/A,,Overcast,0,2012-10-04 03:55:00